Weather History for Al Udeid, Qatar

Change the Weather History Date:

Saturday, February 2, 2013

  Actual Average Record
Temperature  
Mean Temperature 69 °F -  
Max Temperature 77 °F - - ()
Min Temperature 61 °F - - ()
Cooling Degree Days 4    
Growing Degree Days 19 (Base 50)    
Moisture  
Dew Point 47 °F    
Average Humidity 51    
Maximum Humidity 81    
Minimum Humidity 23    
Precipitation  
Precipitation 0.00 in - - ()
Sea Level Pressure  
Sea Level Pressure 30.05 in    
Wind  
Wind Speed 10 mph ()    
Max Wind Speed 18 mph    
Max Gust Speed 16 mph    
Visibility 6.2 miles    
Events      
T = Trace of Precipitation, MM = Missing Value Source: Averaged Metar Reports

Daily Weather History Graph

Daily Weather History Graph

Search for Another Location

Airport:

Trip Planner

Search our weather history database for the weather conditions in past years. The results will help you decide how hot, cold, wet, or windy it might be!

Date:

Astronomy

Feb. 02, 2013 Rise Set
Actual Time 6:17 AM AST 5:19 PM AST
Civil Twilight 5:53 AM AST 5:43 PM AST
Nautical Twilight 5:25 AM AST 6:11 PM AST
Astronomical Twilight 4:58 AM AST 6:38 PM AST
Moon 11:18 PM AST (2/2) 9:57 AM AST (2/2)
Length of Visible Light 11h 50m
Length of Day
11h 02m
Waning Gibbous, 63% of the Moon is Illuminated
Feb 2
Waning Gibbous
Feb 3
Last Quarter
Feb 10
New
Feb 17
First Quarter
Feb 25
Full

Hourly Weather History & Observations

Time (AST) Temp. Dew Point Humidity Pressure Visibility Wind Dir Wind Speed Gust Speed Precip Events Conditions
12:55 AM 62.6 °F 56.8 °F 81% 29.98 in 6.2 mi NW 11.5 mph - N/A   Clear
1:55 AM 62.2 °F 56.1 °F 80% 29.97 in 6.2 mi NW 12.7 mph - N/A   Clear
2:55 AM 61.7 °F 55.6 °F 80% 29.97 in 6.2 mi NNW 15.0 mph - N/A   Clear
3:55 AM 61.7 °F 55.6 °F 80% 29.97 in 6.2 mi NNW 13.8 mph - N/A   Clear
4:55 AM 61.5 °F 55.0 °F 79% 29.98 in 6.2 mi NNW 15.0 mph - N/A   Clear
5:55 AM 61.3 °F 54.0 °F 77% 30.02 in 6.2 mi NNW 13.8 mph - N/A   Clear
6:55 AM 61.9 °F 53.2 °F 73% 30.04 in 6.2 mi NNW 16.1 mph - N/A   Clear
7:55 AM 65.1 °F 51.8 °F 62% 30.06 in 6.2 mi NNW 16.1 mph - N/A   Clear
8:55 AM 68.5 °F 48.6 °F 49% 30.07 in 6.2 mi North 18.4 mph - N/A   Clear
9:55 AM 72.3 °F 44.8 °F 37% 30.08 in 6.2 mi North 12.7 mph - N/A   Partly Cloudy
10:55 AM 74.8 °F 41.0 °F 30% 30.06 in 6.2 mi North 8.1 mph - N/A   Clear
11:55 AM 76.5 °F 36.1 °F 23% 30.05 in 6.2 mi NNW 11.5 mph - N/A   Partly Cloudy
12:55 PM 76.8 °F 35.8 °F 23% 30.03 in 6.2 mi NW 11.5 mph - N/A   Partly Cloudy
1:55 PM 77.0 °F 36.9 °F 23% 30.01 in 6.2 mi NNW 11.5 mph 16.1 mph N/A   Partly Cloudy
2:55 PM 76.6 °F 37.4 °F 24% 30.01 in 6.2 mi NW 13.8 mph - N/A   Clear
3:55 PM 75.9 °F 37.0 °F 24% 30.02 in 6.2 mi NNW 8.1 mph - N/A   Clear
4:55 PM 74.7 °F 36.0 °F 24% 30.05 in 6.2 mi NW 8.1 mph - N/A   Clear
5:55 PM 70.7 °F 35.4 °F 27% 30.07 in 6.2 mi NW 8.1 mph - N/A   Clear
6:55 PM 68.5 °F 52.5 °F 57% 30.09 in 6.2 mi Variable 3.5 mph - N/A   Clear
7:55 PM 66.9 °F 43.0 °F 42% 30.11 in 6.2 mi WNW 5.8 mph - N/A   Clear
8:55 PM 64.2 °F 45.5 °F 51% 30.13 in 6.2 mi North 4.6 mph - N/A   Clear
9:55 PM 64.8 °F 51.4 °F 62% 30.12 in 6.2 mi NNE 5.8 mph - N/A   Clear
10:55 PM 64.2 °F 50.2 °F 60% 30.12 in 6.2 mi NE 3.5 mph - N/A   Clear
11:55 PM 62.1 °F 48.2 °F 60% 30.12 in 6.2 mi SSE 3.5 mph - N/A   Clear